Flag for Germany Weather past 2 weeks in Stuttgart, Baden-Württemberg, Germany

Now
43 °F

Passing clouds.


Feels Like: 34 °F
Forecast: 37 / 45 °F
Wind: 21 mph from West

Location: Stuttgart-Echterdingen

Current Time: Apr 1, 2015 at 2:55:48 AM

Latest Report: Apr 1, 2015 at 2:20 AM


Visibility: N/A

Pressure: 29.92 "Hg

Humidity: 71%

Dew point: 34 °F

Location of StuttgartLocation

Historic Weather in Stuttgart — Graph

°F

Stuttgart temperature yesterday

Maximum temperature yesterday: 55 °F (at 7:20 AM)
Minimum temperature yesterday: 39 °F (at 11:20 PM)
Average temperature yesterday: 48 °F

Past Weeks' High & Low Weather Summary

 TemperatureHumidityPressure
High66 °F (Mar 17, 2:50 PM)100% (Mar 19, 6:20 AM)30.36 "Hg (Mar 19, 6:20 AM)
Low30 °F (Mar 24, 4:50 AM)29% (Mar 20, 4:20 PM)29.56 "Hg (Mar 25, 1:50 PM)
Average46 °F70%29.96 "Hg
* Reported Mar 17 12:20 AM — Apr 1 1:20 AM, Stuttgart, Weather by CustomWeather, © 2015

Note: Actual official high and low records may vary slightly from our data, if they occured in-between our weather recording intervals... More about our weather records

Advertising

Stuttgart weather history for previous 24 hours

 ConditionsComfort  
Time TempWeatherWind HumidityBarometerVisibility
1:20 AM
Wed, Apr 1
43 °FPassing clouds.25 mph71%29.92 "HgN/A
12:50 AM43 °FPassing clouds.18 mph71%29.92 "HgN/A
12:20 AM43 °FPassing clouds.14 mph76%29.92 "HgN/A
11:50 PM
Tue, Mar 31
41 °FPassing clouds.15 mph81%29.89 "HgN/A
11:20 PM39 °FPassing clouds.10 mph87%29.89 "HgN/A
10:50 PM41 °FQuite cool.13 mph87%29.89 "HgN/A
10:20 PM41 °FPassing clouds.13 mph81%29.89 "HgN/A
9:50 PM41 °FSprinkles. Passing clouds.15 mph81%29.89 "HgN/A
9:20 PM41 °FSprinkles. Passing clouds.21 mph87%29.89 "HgN/A
8:50 PM41 °FSprinkles. Broken clouds.28 mph87%29.92 "HgN/A
8:20 PM43 °FPartly sunny.23 mph76%29.89 "HgN/A
7:50 PM43 °FSprinkles. Partly sunny.26 mph81%29.89 "HgN/A
7:20 PM41 °FSprinkles. Partly sunny.26 mph87%29.86 "HgN/A
6:50 PM41 °FSprinkles. Partly sunny.25 mph87%29.86 "HgN/A
6:20 PM48 °FBroken clouds.39 mph66%29.80 "HgN/A
5:50 PM46 °FSprinkles. Scattered clouds.36 mph76%29.77 "HgN/A
5:20 PM50 °FScattered clouds.32 mph67%29.77 "HgN/A
4:50 PM48 °FScattered clouds.31 mph76%29.74 "HgN/A
4:20 PM48 °FScattered clouds.38 mph76%29.74 "HgN/A
3:50 PM48 °FSprinkles. Broken clouds.37 mph82%29.74 "Hg6 mi
3:20 PM48 °FSprinkles. Broken clouds.30 mph82%29.71 "HgN/A
2:50 PM50 °FSprinkles. Broken clouds.26 mph82%29.68 "HgN/A
2:20 PM55 °FBroken clouds.32 mph59%29.65 "HgN/A
1:50 PM54 °FBroken clouds.29 mph67%29.65 "HgN/A
1:20 PM54 °FSprinkles. Partly sunny.31 mph67%29.65 "HgN/A
12:50 PM55 °FBroken clouds.44 mph55%29.65 "HgN/A
12:20 PM55 °FPartly sunny.31 mph59%29.65 "HgN/A
11:50 AM54 °FLight rain. Broken clouds.33 mph72%29.62 "HgN/A
11:20 AM54 °FLight rain. Broken clouds.24 mph72%29.62 "HgN/A
10:50 AM54 °FLight rain. Broken clouds.23 mph77%29.62 "HgN/A
10:20 AM54 °FLight rain. Broken clouds.22 mph77%29.59 "HgN/A
9:50 AM54 °FLight rain. Broken clouds.24 mph72%29.59 "HgN/A
9:20 AM54 °FLight rain. Broken clouds.25 mph72%29.59 "HgN/A
8:50 AM55 °FPartly sunny.24 mph67%29.56 "HgN/A
8:20 AM55 °FPartly sunny.24 mph67%29.56 "HgN/A
7:50 AM55 °FPassing clouds.24 mph72%29.56 "HgN/A
7:20 AM55 °FPassing clouds.20 mph72%29.56 "HgN/A
6:50 AM54 °FPartly cloudy.18 mph77%29.59 "HgN/A
6:20 AM54 °FPartly cloudy.21 mph77%29.59 "HgN/A
5:50 AM54 °FPassing clouds.21 mph77%29.59 "HgN/A
5:20 AM52 °FPassing clouds.16 mph82%29.59 "HgN/A
4:50 AM48 °FPassing clouds.13 mph87%29.62 "HgN/A
4:20 AM46 °FPassing clouds.13 mph82%29.65 "HgN/A
3:50 AM46 °FLight rain. Passing clouds.12 mph82%29.68 "HgN/A
3:20 AM45 °FLight rain. Passing clouds.8 mph81%29.74 "HgN/A
2:50 AM45 °FPassing clouds.9 mph76%29.77 "HgN/A
2:20 AM45 °FPassing clouds.10 mph71%29.80 "HgN/A
Weather by CustomWeather, © 2015

See weather overviewHow to use our weather pages